Stations météo

réclame
Mon MeteoGroup
Barcelona/Aeropuerto, Espagne (8181): Température de l'air & dewpoint: 13.11.2017 18:00:00 - 19.11.2017 18:00:00 (CET)Barcelona/Aeropuerto, Espagne (8181): Vitesse du vent: 13.11.2017 18:00:00 - 19.11.2017 18:00:00 (CET)Barcelona/Aeropuerto, Espagne (8181): Direction du vent: 13.11.2017 18:00:00 - 19.11.2017 18:00:00 (CET)Barcelona/Aeropuerto, Espagne (8181): reduced air pressure: 13.11.2017 18:00:00 - 19.11.2017 18:00:00 (CET)Barcelona/Aeropuerto, Espagne (8181): visibility: 13.11.2017 18:00:00 - 19.11.2017 18:00:00 (CET)
Date & Time tt [°C] td [°C] ff [km/h] ff [knt] dd ppp [hPa] vv [km]
19.11.2017 18:00:00 14,5 9,3 5 3 W 1020,8 16
19.11.2017 17:00:00 16,1 9,0 9 5 WSW 1020,6 19
19.11.2017 16:00:00 17,1 9,0 13 7 SW 1020,4 25
19.11.2017 15:00:00 17,4 8,3 13 7 SSW 1020,4 25
19.11.2017 14:00:00 18,2 6,6 9 5 N 1020,7 18
19.11.2017 13:00:00 16,9 5,3 16 9 N 1021,1 22
19.11.2017 12:00:00 15,0 5,2 21 11 N 1021,6 14
19.11.2017 11:00:00 12,8 4,7 21 11 N 1021,9 23
19.11.2017 10:00:00 - - - - - - -
19.11.2017 09:00:00 8,6 3,2 26 14 N 1021,4 16
19.11.2017 08:00:00 7,7 3,0 22 12 N 1021,0 22
19.11.2017 07:00:00 7,2 2,9 24 13 N 1020,4 18
19.11.2017 06:00:00 7,4 3,3 22 12 N 1020,3 18
19.11.2017 05:00:00 7,8 3,3 22 12 N 1020,5 17
19.11.2017 04:00:00 8,0 3,6 15 8 N 1020,6 15
19.11.2017 03:00:00 8,9 3,7 15 8 N 1020,8 14
19.11.2017 02:00:00 9,4 3,8 22 12 N 1020,7 17
19.11.2017 01:00:00 10,3 4,0 16 9 N 1020,9 16
19.11.2017 00:00:00 10,8 4,0 16 9 N 1021,3 18
18.11.2017 23:00:00 10,8 4,9 9 5 N 1021,2 11
18.11.2017 22:00:00 11,6 6,3 11 6 N 1021,4 9
18.11.2017 21:00:00 11,9 8,4 9 5 N 1021,1 10
18.11.2017 20:00:00 12,6 9,4 8 4 NNW 1021,0 10
18.11.2017 19:00:00 14,1 9,5 4 2 WNW 1020,5 10
18.11.2017 18:00:00 15,8 10,1 5 3 WSW 1020,1 12
18.11.2017 17:00:00 17,2 10,1 5 3 WSW 1019,8 15
18.11.2017 16:00:00 18,3 10,6 11 6 WSW 1019,2 14
18.11.2017 15:00:00 18,8 10,7 11 6 SW 1019,1 13
18.11.2017 14:00:00 19,7 9,8 4 2 NE 1019,4 19
18.11.2017 13:00:00 18,1 8,2 9 5 N 1020,1 12
18.11.2017 12:00:00 15,8 4,8 15 8 N 1020,5 15
18.11.2017 11:00:00 13,6 3,9 15 8 N 1020,3 14
18.11.2017 10:00:00 10,3 2,3 22 12 N 1020,3 25
18.11.2017 09:00:00 8,8 1,9 24 13 N 1019,9 22
18.11.2017 08:00:00 7,7 1,7 21 11 N 1019,6 22
18.11.2017 07:00:00 8,3 1,7 18 10 N 1019,3 20
18.11.2017 06:00:00 7,9 1,7 24 13 N 1019,0 21
18.11.2017 05:00:00 8,9 1,8 22 12 N 1019,0 23
18.11.2017 04:00:00 8,8 1,9 24 13 N 1019,1 20
18.11.2017 03:00:00 9,3 2,2 22 12 N 1019,0 22
18.11.2017 02:00:00 9,4 2,3 21 11 N 1019,1 22
18.11.2017 01:00:00 10,2 2,5 18 10 N 1019,5 20
18.11.2017 00:00:00 11,1 2,2 18 10 N 1019,7 20
17.11.2017 23:00:00 12,7 1,8 21 11 N 1019,7 18
17.11.2017 22:00:00 12,2 2,8 13 7 N 1019,2 18
17.11.2017 21:00:00 12,6 4,5 5 3 NNW 1018,9 14
17.11.2017 20:00:00 13,0 7,0 5 3 NNW 1018,8 13
17.11.2017 19:00:00 14,4 7,7 4 2 N 1018,7 15
17.11.2017 18:00:00 15,8 9,5 9 5 WSW 1018,2 25
17.11.2017 17:00:00 17,7 9,1 9 5 WSW 1017,9 21
17.11.2017 16:00:00 18,8 7,6 13 7 WSW 1018,0 22
17.11.2017 15:00:00 19,1 6,0 11 6 WSW 1018,2 19
17.11.2017 14:00:00 18,7 6,5 8 4 SSW 1018,8 19
17.11.2017 13:00:00 19,1 1,1 4 2 S 1019,5 30
17.11.2017 12:00:00 15,8 1,8 13 7 N 1020,2 16
17.11.2017 11:00:00 12,6 1,0 18 10 N 1020,4 21
17.11.2017 10:00:00 10,1 0,7 22 12 N 1020,5 50
17.11.2017 09:00:00 7,6 0,2 16 9 N 1020,4 20
17.11.2017 08:00:00 6,1 0,2 24 13 N 1020,2 26
17.11.2017 07:00:00 6,2 0,3 24 13 N 1019,9 20
17.11.2017 06:00:00 6,4 0,3 22 12 N 1020,0 27
17.11.2017 05:00:00 6,9 0,8 22 12 N 1020,2 20
17.11.2017 04:00:00 7,0 1,1 21 11 N 1020,4 20
17.11.2017 03:00:00 7,7 1,5 22 12 N 1020,7 24
17.11.2017 02:00:00 8,1 2,3 22 12 N 1020,5 23
17.11.2017 01:00:00 8,8 2,6 24 13 N 1021,0 25
17.11.2017 00:00:00 9,4 4,0 16 9 N 1021,1 21
16.11.2017 23:00:00 9,9 5,1 16 9 N 1021,1 24
16.11.2017 22:00:00 10,3 5,9 15 8 N 1021,0 20
16.11.2017 21:00:00 10,5 6,3 9 5 N 1020,9 17
16.11.2017 20:00:00 11,4 6,5 4 2 NNW 1020,4 26
16.11.2017 19:00:00 13,0 9,3 5 3 WNW 1020,0 15
16.11.2017 18:00:00 14,7 10,7 5 3 W 1019,8 13
16.11.2017 17:00:00 16,6 10,7 8 4 WSW 1019,7 27
16.11.2017 16:00:00 17,3 10,7 8 4 SE 1019,9 25
16.11.2017 15:00:00 17,3 10,3 9 5 SE 1020,0 24
16.11.2017 14:00:00 17,0 10,4 9 5 SE 1020,4 22
16.11.2017 13:00:00 17,1 8,2 8 4 NE 1021,1 20
16.11.2017 12:00:00 15,0 3,4 13 7 N 1021,8 20
16.11.2017 11:00:00 12,1 1,6 21 11 N 1022,1 30
16.11.2017 10:00:00 9,2 0,6 18 10 N 1021,4 30
16.11.2017 09:00:00 6,6 0,1 21 11 N 1021,0 28
16.11.2017 08:00:00 5,4 0,0 22 12 N 1020,7 24
16.11.2017 07:00:00 5,7 0,0 21 11 N 1020,1 20
16.11.2017 06:00:00 5,8 0,3 21 11 N 1019,8 23
16.11.2017 05:00:00 6,4 0,3 18 10 N 1019,7 28
16.11.2017 04:00:00 6,6 0,5 21 11 N 1019,7 20
16.11.2017 03:00:00 6,9 1,2 21 11 N 1019,8 25
16.11.2017 02:00:00 7,4 1,2 21 11 N 1019,9 30
16.11.2017 01:00:00 7,7 1,7 21 11 N 1020,0 20
16.11.2017 00:00:00 7,8 2,0 18 10 N 1020,2 25
15.11.2017 23:00:00 8,2 2,6 15 8 N 1020,2 21
15.11.2017 22:00:00 8,5 2,8 15 8 N 1020,2 18
15.11.2017 21:00:00 9,0 4,2 11 6 N 1019,8 18
15.11.2017 20:00:00 10,0 4,6 11 6 N 1019,5 22
15.11.2017 19:00:00 11,3 4,7 5 3 NNW 1019,0 20
15.11.2017 18:00:00 13,4 4,5 4 2 W 1018,6 30
15.11.2017 17:00:00 15,0 4,4 8 4 SW 1018,0 30
15.11.2017 16:00:00 16,2 3,3 8 4 SSW 1018,1 25
15.11.2017 15:00:00 16,0 2,7 11 6 SSW 1018,2 30
15.11.2017 14:00:00 16,8 1,1 8 4 SSW 1018,5 24
15.11.2017 13:00:00 15,1 -2,7 13 7 N 1019,0 25
15.11.2017 12:00:00 13,3 -0,9 18 10 N 1020,0 23
15.11.2017 11:00:00 11,3 -0,7 18 10 N 1020,4 30
15.11.2017 10:00:00 9,1 -0,6 22 12 N 1020,3 28
15.11.2017 09:00:00 6,3 -1,4 24 13 N 1019,9 30
15.11.2017 08:00:00 5,5 -1,4 16 9 N 1020,0 26
15.11.2017 07:00:00 4,8 -1,7 18 10 N 1019,6 30
15.11.2017 06:00:00 5,8 -1,4 13 7 NNW 1019,4 23
15.11.2017 05:00:00 5,4 -1,5 22 12 N 1019,5 28
15.11.2017 04:00:00 5,7 -1,5 21 11 N 1019,5 25
15.11.2017 03:00:00 5,7 -1,5 24 13 N 1019,9 27
15.11.2017 02:00:00 6,3 -1,1 24 13 N 1019,7 25
15.11.2017 01:00:00 7,0 -0,9 21 11 N 1020,2 25
15.11.2017 00:00:00 7,8 -0,9 18 10 N 1020,4 22
14.11.2017 23:00:00 8,3 -0,5 18 10 N 1020,7 26
14.11.2017 22:00:00 8,3 0,0 18 10 N 1020,5 25
14.11.2017 21:00:00 9,0 0,4 11 6 N 1020,6 22
14.11.2017 20:00:00 9,9 1,0 4 2 N 1020,2 22
14.11.2017 19:00:00 11,2 1,4 8 4 NNW 1019,8 30
14.11.2017 18:00:00 13,1 1,7 9 5 WSW 1019,3 30
14.11.2017 17:00:00 15,7 1,0 9 5 SSW 1018,8 30
14.11.2017 16:00:00 16,3 -0,3 8 4 S 1018,4 40
14.11.2017 15:00:00 16,8 -0,4 9 5 SSW 1018,0 20
14.11.2017 14:00:00 16,1 -4,4 5 3 NW 1017,9 29
14.11.2017 13:00:00 15,1 -5,9 11 6 N 1018,2 40
14.11.2017 12:00:00 13,6 -3,1 16 9 N 1018,5 30
14.11.2017 11:00:00 11,7 -2,9 18 10 N 1018,6 26
14.11.2017 10:00:00 9,7 -2,9 21 11 N 1018,2 40
14.11.2017 09:00:00 7,8 -3,1 21 11 N 1017,7 27
14.11.2017 08:00:00 6,7 -3,3 21 11 NNW 1017,1 27
14.11.2017 07:00:00 7,2 -4,0 21 11 N 1016,2 30
14.11.2017 06:00:00 7,7 -4,7 21 11 N 1015,9 30
14.11.2017 05:00:00 7,9 -5,2 16 9 N 1015,3 30
14.11.2017 04:00:00 8,5 -5,7 15 8 N 1015,1 30
14.11.2017 03:00:00 8,8 -6,2 15 8 N 1015,1 25
14.11.2017 02:00:00 8,9 -6,1 11 6 NNW 1014,9 18
14.11.2017 01:00:00 11,0 -7,7 16 9 NNW 1014,8 30
14.11.2017 00:00:00 11,7 -8,2 22 12 NNW 1014,5 30
13.11.2017 23:00:00 12,4 -10,0 22 12 NNW 1014,7 29
13.11.2017 22:00:00 11,9 -9,2 15 8 NNW 1014,8 30
13.11.2017 21:00:00 12,5 -9,5 18 10 NNW 1014,6 23
13.11.2017 20:00:00 12,4 -9,4 16 9 NNW 1014,7 22
13.11.2017 19:00:00 13,2 -9,3 16 9 NW 1015,1 30
13.11.2017 18:00:00 13,8 -8,3 15 8 NW 1014,6 17

tt = Température de l'air
td = dewpoint
ff = Vitesse du vent
dd = Direction du vent
ppp = reduced air pressure
vv = visibility

stations d'obs. à proximité